• In Belarus
  • List of Countries
  • For 7 days
  • Water Temperature
  • Weather Map
  • Weather Widgets
  • user-avatar
    Login

    Hourly Weather Oboh

    Today, 6 December, Friday

    Time Temperature Precipitation Wind Pressure Humidity
    00:00 -7°C° 0 mm 1 mps 613 mmHg 45%
    01:00 -7°C° 0 mm 1 mps 613 mmHg 43%
    02:00 -7°C° 0 mm 1 mps 613 mmHg 41%
    03:00 -8°C° 0 mm 2 mps 613 mmHg 39%
    04:00 -7°C° 0 mm 1 mps 613 mmHg 38%
    05:00 -7°C° 0 mm 1 mps 613 mmHg 37%
    06:00 -8°C° 0 mm 1 mps 613 mmHg 36%
    07:00 -6°C° 0 mm 1 mps 614 mmHg 38%
    08:00 -4°C° 0 mm 1 mps 614 mmHg 40%
    09:00 -3°C° 0 mm 1 mps 615 mmHg 41%
    10:00 -2°C° 0 mm 1 mps 615 mmHg 42%
    11:00 -1°C° 0 mm 1 mps 615 mmHg 43%
    12:00 0°C° 0 mm 1 mps 616 mmHg 45%
    13:00 -2°C° 0 mm 0 mps 615 mmHg 48%
    14:00 -2°C° 0 mm 0 mps 615 mmHg 51%
    15:00 -2°C° 0 mm 1 mps 614 mmHg 54%
    16:00 -3°C° 0 mm 1 mps 614 mmHg 49%
    17:00 -3°C° 0 mm 1 mps 613 mmHg 45%
    18:00 -6°C° 0 mm 2 mps 613 mmHg 40%
    19:00 -6°C° 0 mm 2 mps 613 mmHg 39%
    20:00 -6°C° 0 mm 2 mps 613 mmHg 37%
    21:00 -6°C° 0 mm 2 mps 613 mmHg 35%
    22:00 -6°C° 0 mm 2 mps 613 mmHg 34%
    23:00 -6°C° 0 mm 2 mps 612 mmHg 33%

    Tomorrow, 7 December, Saturday

    Time Temperature Precipitation Wind Pressure Humidity
    00:00 -6°C° 0 mm 2 mps 612 mmHg 32%
    01:00 -6°C° 0 mm 2 mps 612 mmHg 31%
    02:00 -6°C° 0 mm 2 mps 612 mmHg 30%
    03:00 -6°C° 0 mm 2 mps 611 mmHg 29%
    04:00 -6°C° 0 mm 2 mps 611 mmHg 28%
    05:00 -6°C° 0 mm 2 mps 611 mmHg 27%
    06:00 -6°C° 0 mm 2 mps 611 mmHg 27%
    07:00 -5°C° 0 mm 2 mps 611 mmHg 30%
    08:00 -4°C° 0 mm 2 mps 612 mmHg 33%
    09:00 -1°C° 0 mm 1 mps 612 mmHg 36%
    10:00 0°C° 0 mm 1 mps 612 mmHg 38%
    11:00 +2°C° 0 mm 1 mps 612 mmHg 41%
    12:00 +3°C° 0 mm 1 mps 612 mmHg 44%
    13:00 +2°C° 0 mm 1 mps 612 mmHg 46%
    14:00 +2°C° 0 mm 1 mps 611 mmHg 47%
    15:00 +1°C° 0 mm 1 mps 611 mmHg 49%
    16:00 +1°C° 0 mm 1 mps 610 mmHg 49%
    17:00 -2°C° 0 mm 2 mps 610 mmHg 49%
    18:00 -3°C° 0 mm 2 mps 610 mmHg 49%
    19:00 -3°C° 0 mm 2 mps 609 mmHg 49%
    20:00 -3°C° 0 mm 2 mps 609 mmHg 50%
    21:00 -3°C° 0 mm 2 mps 609 mmHg 51%
    22:00 -3°C° 0 mm 2 mps 609 mmHg 50%
    23:00 -3°C° 0 mm 2 mps 608 mmHg 49%

    Day after tomorrow, 8 December, Sunday

    Time Temperature Precipitation Wind Pressure Humidity
    00:00 -3°C° 0 mm 2 mps 608 mmHg 49%
    01:00 -3°C° 0 mm 2 mps 608 mmHg 48%
    02:00 -3°C° 0 mm 2 mps 607 mmHg 48%
    03:00 -3°C° 0 mm 2 mps 607 mmHg 47%
    04:00 -3°C° 0 mm 2 mps 607 mmHg 47%
    05:00 -3°C° 0 mm 2 mps 606 mmHg 47%
    06:00 -3°C° 0 mm 2 mps 606 mmHg 46%
    07:00 0°C° 0 mm 1 mps 606 mmHg 47%
    08:00 +1°C° 0 mm 1 mps 607 mmHg 49%
    09:00 0°C° 0 mm 0 mps 607 mmHg 50%
    10:00 +2°C° 0 mm 1 mps 607 mmHg 52%
    11:00 +3°C° 0 mm 1 mps 607 mmHg 54%
    12:00 +3°C° 0 mm 1 mps 606 mmHg 56%
    13:00 +3°C° 0 mm 1 mps 606 mmHg 59%
    14:00 +2°C° 0 mm 1 mps 605 mmHg 61%
    15:00 0°C° 0 mm 0 mps 605 mmHg 64%
    16:00 -1°C° 0 mm 0 mps 605 mmHg 65%
    17:00 -2°C° 0 mm 0 mps 604 mmHg 66%
    18:00 -3°C° 0 mm 0 mps 604 mmHg 67%
    19:00 -3°C° 0 mm 0 mps 604 mmHg 67%
    20:00 -3°C° 0 mm 0 mps 605 mmHg 68%
    21:00 -3°C° 0 mm 0 mps 605 mmHg 68%
    22:00 -3°C° 0 mm 0 mps 605 mmHg 69%
    23:00 -3°C° 0 mm 0 mps 605 mmHg 69%

    9 December, Monday

    Time Temperature Precipitation Wind Pressure Humidity
    00:00 -3°C° 0 mm 0 mps 605 mmHg 70%
    01:00 -3°C° 0 mm 0 mps 605 mmHg 70%
    02:00 -3°C° 0 mm 0 mps 605 mmHg 69%
    03:00 -2°C° 0 mm 1 mps 605 mmHg 69%
    04:00 -2°C° 0 mm 1 mps 605 mmHg 68%
    05:00 -2°C° 0 mm 1 mps 605 mmHg 67%
    06:00 -2°C° 0 mm 1 mps 605 mmHg 65%
    07:00 -2°C° 0 mm 1 mps 606 mmHg 64%
    08:00 -2°C° 0 mm 1 mps 606 mmHg 62%
    09:00 -1°C° 0 mm 1 mps 607 mmHg 61%
    10:00 -1°C° 0 mm 1 mps 607 mmHg 59%
    11:00 -2°C° 0 mm 2 mps 607 mmHg 57%
    12:00 -2°C° 0 mm 2 mps 607 mmHg 56%
    13:00 0°C° 0 mm 1 mps 607 mmHg 60%
    14:00 0°C° 0 mm 1 mps 607 mmHg 64%
    15:00 -1°C° 0 mm 1 mps 607 mmHg 68%
    16:00 -3°C° 0 mm 0 mps 607 mmHg 70%
    17:00 -3°C° 0 mm 0 mps 607 mmHg 71%
    18:00 -4°C° 0 mm 0 mps 607 mmHg 72%
    19:00 -4°C° 0 mm 0 mps 607 mmHg 70%
    20:00 -4°C° 0 mm 0 mps 607 mmHg 68%
    21:00 -4°C° 0 mm 0 mps 607 mmHg 66%
    22:00 -4°C° 0 mm 0 mps 607 mmHg 64%
    23:00 -4°C° 0 mm 0 mps 607 mmHg 61%

    10 December, Tuesday

    Time Temperature Precipitation Wind Pressure Humidity
    00:00 -4°C° 0 mm 0 mps 607 mmHg 59%
    01:00 -4°C° 0 mm 0 mps 607 mmHg 58%
    02:00 -4°C° 0 mm 0 mps 607 mmHg 58%
    03:00 -4°C° 0 mm 0 mps 607 mmHg 57%
    04:00 -4°C° 0 mm 0 mps 607 mmHg 56%
    05:00 -4°C° 0 mm 0 mps 607 mmHg 55%
    06:00 -4°C° 0 mm 0 mps 607 mmHg 54%
    07:00 -4°C° 0 mm 0 mps 607 mmHg 53%
    08:00 -3°C° 0 mm 0 mps 608 mmHg 52%
    09:00 -2°C° 0 mm 0 mps 608 mmHg 52%
    10:00 -2°C° 0 mm 0 mps 608 mmHg 51%
    11:00 -1°C° 0 mm 0 mps 608 mmHg 50%
    12:00 0°C° 0 mm 0 mps 608 mmHg 50%
    13:00 -1°C° 0 mm 0 mps 608 mmHg 54%
    14:00 -1°C° 0 mm 0 mps 608 mmHg 58%
    15:00 -1°C° 0 mm 0 mps 607 mmHg 63%
    16:00 -2°C° 0 mm 0 mps 607 mmHg 63%
    17:00 -3°C° 0 mm 0 mps 607 mmHg 64%
    18:00 -3°C° 0 mm 0 mps 607 mmHg 64%
    19:00 -3°C° 0 mm 0 mps 607 mmHg 63%
    20:00 -3°C° 0 mm 0 mps 607 mmHg 62%
    21:00 -3°C° 0 mm 0 mps 607 mmHg 60%
    22:00 -3°C° 0 mm 0 mps 607 mmHg 59%
    23:00 -3°C° 0 mm 0 mps 607 mmHg 58%

    11 December, Wednesday

    Time Temperature Precipitation Wind Pressure Humidity
    00:00 -4°C° 0 mm 0 mps 607 mmHg 57%
    01:00 -4°C° 0 mm 0 mps 607 mmHg 56%
    02:00 -3°C° 0 mm 1 mps 607 mmHg 55%
    03:00 -3°C° 0 mm 1 mps 607 mmHg 54%
    04:00 -3°C° 0 mm 1 mps 607 mmHg 54%
    05:00 -4°C° 0 mm 0 mps 607 mmHg 53%
    06:00 -4°C° 0 mm 0 mps 607 mmHg 53%
    07:00 -3°C° 0 mm 0 mps 607 mmHg 52%
    08:00 -3°C° 0 mm 0 mps 607 mmHg 51%
    09:00 -2°C° 0 mm 0 mps 608 mmHg 51%
    10:00 -1°C° 0 mm 0 mps 608 mmHg 50%
    11:00 0°C° 0 mm 0 mps 608 mmHg 49%
    12:00 +1°C° 0 mm 1 mps 608 mmHg 48%
    13:00 0°C° 0 mm 0 mps 607 mmHg 52%
    14:00 0°C° 0 mm 0 mps 607 mmHg 56%
    15:00 -1°C° 0 mm 0 mps 607 mmHg 60%
    16:00 -2°C° 0 mm 0 mps 606 mmHg 60%
    17:00 -2°C° 0 mm 1 mps 606 mmHg 61%
    18:00 -2°C° 0 mm 1 mps 606 mmHg 61%
    19:00 -2°C° 0 mm 1 mps 606 mmHg 60%
    20:00 -3°C° 0 mm 1 mps 606 mmHg 58%
    21:00 -3°C° 0 mm 1 mps 606 mmHg 56%
    22:00 -3°C° 0 mm 1 mps 606 mmHg 55%
    23:00 -3°C° 0 mm 1 mps 605 mmHg 53%
    Show more